Regional Weather Roundup
Issued by NWS Portland, ME

Home | Current Version | Previous Version | Text Only | Print | Product List | Glossary On
Versions: 1 2 3 4 5 6 7 8 9 10 11 12 13 14 15 16 17 18 19 20 21 22 23 24 25 26 27 28 29 30 31 32 33 34 35 36 37 38 39 40 41 42 43 44 45 46 47 48 49 50
000
ASUS41 KGYX 042110
RWRGYX
WEATHER ROUNDUP FOR MAINE AND NEW HAMPSHIRE
NATIONAL WEATHER SERVICE GRAY ME
500 PM EDT SAT JUL 04 2015

MEZ002-005-006-010-012-015-018-020-021-024-026-027-029-042200-
MAINE

CITY           SKY/WX    TMP DP  RH WIND       PRES   REMARKS
PORTLAND       CLOUDY    67  61  81 W6        29.97F
SANFORD        CLOUDY    66  57  72 CALM      29.98F
BAR HARBOR     CLOUDY    68  59  73 SW10      29.97F
WISCASSET      CLOUDY    66  58  75 S3        29.99S
ROCKLAND       CLOUDY    61  55  82 S7        29.98R
FRYEBURG       CLOUDY    69  57  65 CALM      29.97F
LEWISTONAUBURN CLOUDY    70  61  73 S9        29.97F
AUGUSTA        CLOUDY    69  56  62 S5        29.97S
WATERVILLE       N/A     70  57  64 S5        29.94
BANGOR         CLOUDY    72  55  55 S9        29.96S
GREENVILLE       N/A     69  52  54 S5        29.95S
MILLINOCKET    CLOUDY    74  53  48 VRB3      29.94F
HOULTON        CLOUDY    74  52  46 SW8       29.91F
PRESQUE ISLE   CLOUDY    75  48  38 W3        29.91F
FRENCHVILLE    CLOUDY    70  51  51 SW8       29.92F
CARIBOU        CLOUDY    75  49  39 W7        29.90F
$$

NHZ002-005-008-009-011-012-014-042200-
NEW HAMPSHIRE

CITY           SKY/WX    TMP DP  RH WIND       PRES   REMARKS
PORTSMOUTH     LGT RAIN  67  62  82 W5        29.96F
ROCHESTER      LGT RAIN  67  62  84 CALM      29.97F
NASHUA         LGT RAIN  66  63  90 NW7       29.98F
MANCHESTER     LGT RAIN  66  61  84 NW3       29.96F
CONCORD        CLOUDY    66  60  81 SW3       29.98F
LACONIA        CLOUDY    66  57  72 W5        29.97F
PLYMOUTH       FAIR      69  62  78 CALM      29.97S HAZE
BERLIN         CLOUDY    70  56  61 S3        29.97F
WHITEFIELD     CLOUDY    70  53  54 W6        29.97F
JAFFREY        CLOUDY    64  59  83 CALM      30.01R
KEENE          CLOUDY    66  55  68 W3        30.00S
LEBANON        CLOUDY    68  59  73 S8        29.97F
MT WASHINGTON  PTSUNNY   48  41  76 NW13        N/A
$$

VTZ005-007-008-042200-
VERMONT

CITY           SKY/WX    TMP DP  RH WIND       PRES   REMARKS
ST JOHNSBURY     N/A     69  57  65 MISG      29.94F
MONTPELIER     CLOUDY    70  58  65 S12       29.99F
BURLINGTON     LGT RAIN  70  61  73 S12G20    29.92F
$$

MAZ007-012-024-CTZ003-RIZ002-NYZ038-NYZ072-042200-
SOUTHERN NEW ENGLAND AND NY

CITY           SKY/WX    TMP DP  RH WIND       PRES   REMARKS
BOSTON         CLOUDY    66  59  78 NE7       29.96F
WORCESTER      CLOUDY    69  59  70 N8        29.99S
NANTUCKET      CLOUDY    67  53  61 NE10      29.94F
PROVIDENCE     CLOUDY    73  52  47 E5        29.94F
HARTFORD       CLOUDY    69  56  62 N7        29.96R
ALBANY         CLOUDY    68  62  81 VRB5      29.98F
NEW YORK CITY  PTSUNNY   74  58  57 E10       29.94S
$$

ANZ081-ANZ082-ANZ150-NHZ014-MEZ023>029-042200-
COASTAL MARINE OBSERVATIONS

STATION/POSITION TIME  TEMP    WIND        PRES    WAVE
                       AIR SEA DIR/SP/G            HT/PER
                 (UTC) (F)     (DEG/KT/KT) (MB)    (FT/S)
MOUNT DESERT ROC 2100   57     190/ 13/ 13 1015.5F
MATINICUS ROCK   2100   57     210/ 13/ 14 1015.2F
ISLE OF SHOALS   2100   63     150/ 10/ 11 1014.3F
JEFFREYS LEDGE   2003      59                N/A     2/ 9
CASHES LEDGE BUO 2050   59 58              1015.1F   3/ 8
GEORGES BANK BUO 2050   64 59   70/ 14/ 19 1012.5F   5/10
$$

.............KEY..............
   WCI - WIND CHILL
   TC  - TEMPERATURE IN CELSIUS
   VSB - VISIBILITY IN MILES
   HX  - HEAT INDEX
   FAIR- INDICATES FEW OR NO CLOUDS BELOW 12,000 FT, WITH NO
         SIGNIFICANT WEATHER AND/OR OBSTRUCTIONS TO VISIBILITY.





USA.gov is the U.S. government's official web portal to all federal, state and local government web resources and services.